GFSMW_con_3kmhel_024.txt.gz
Helicity
-41 -24 10 19 -8 -14 -14 17 29 38 60 73 85 92 96 80 109 142 141 138 147 155 168 158 153 156 154 119 85 63 76 102 87 134 164 156 196 208 179 150 131 113 92
-43 -1 -2 21 39 55 41 43 53 106 120 150 161 142 134 132 162 159 154 144 166 181 182 182 185 173 135 116 90 79 108 120 141 131 152 158 150 201 172 152 140 119 130
30 11 48 32 33 72 94 108 113 150 186 217 291 277 286 255 233 220 213 187 186 195 223 204 176 154 140 133 106 98 85 135 141 212 160 182 174 211 172 154 163 159 135
53 74 119 78 54 74 81 96 150 213 230 278 310 328 325 321 223 238 239 224 213 231 232 227 204 183 158 139 121 95 87 192 201 211 227 202 248 255 237 186 172 182 167
136 156 141 151 171 115 112 155 190 222 280 310 316 322 311 329 309 300 285 267 256 251 264 242 234 221 192 206 214 211 132 175 253 217 280 213 210 257 297 285 251 218 140
171 160 167 203 190 196 189 181 240 235 285 293 302 312 351 368 387 349 316 314 324 315 284 257 251 245 254 248 255 99 267 205 258 275 233 229 286 281 295 313 250 223 177
293 280 284 306 285 266 240 256 270 261 298 278 290 289 357 426 370 393 405 377 371 361 332 362 316 152 208 207 177 270 211 207 231 197 207 205 217 262 253 260 218 214 191
286 331 327 369 313 312 278 285 317 347 307 228 260 354 308 366 403 451 469 441 443 447 462 446 383 312 236 251 253 223 194 236 203 170 182 192 164 166 197 217 210 193 183
123 167 277 330 306 292 307 324 359 358 331 273 378 450 407 422 452 459 475 508 489 485 415 447 387 361 308 234 155 237 242 190 172 169 168 171 169 162 160 163 189 199 187
32 61 110 211 275 276 273 307 330 372 355 357 340 349 392 452 498 567 548 519 536 513 466 311 352 344 221 201 258 233 144 173 179 175 153 142 138 139 140 146 166 194 204
22 44 60 93 174 198 209 261 296 350 371 387 363 341 379 436 470 498 503 532 536 437 396 371 379 262 247 279 328 176 134 170 175 156 125 129 129 137 157 163 174 189 220
26 35 39 37 73 103 109 128 213 309 335 349 403 378 408 414 431 451 463 468 428 419 391 357 294 331 309 344 236 107 146 200 199 156 152 129 147 150 169 188 167 198 212
44 34 58 70 94 164 157 216 212 221 304 382 413 463 444 428 428 453 413 413 445 440 433 388 403 333 415 264 75 105 190 182 165 179 175 146 181 163 193 211 196 210 204
29 51 64 76 130 156 166 174 204 283 354 394 410 446 431 431 372 369 434 451 456 442 371 367 420 487 486 108 85 167 167 154 172 178 179 187 204 184 196 214 204 210 215
84 70 69 82 101 115 145 161 218 301 380 380 347 324 374 355 378 404 441 461 455 466 431 570 619 626 208 89 149 166 149 164 189 212 207 212 200 164 206 242 205 227 224
235 219 183 140 117 82 103 153 227 311 378 387 355 340 321 382 398 448 460 455 472 522 566 700 815 345 161 105 127 116 152 191 249 265 255 224 203 183 182 177 193 216 233
284 269 236 212 205 155 113 118 171 231 266 277 286 324 395 454 472 499 579 663 718 698 724 942 343 206 155 132 120 71 154 209 243 290 284 260 234 205 212 197 206 196 171
237 215 179 173 185 155 152 143 148 183 227 258 296 352 411 424 466 592 695 685 712 859 864 471 221 201 179 156 87 78 136 203 238 284 273 272 236 216 225 222 217 199 178
112 104 123 145 177 173 134 152 187 214 280 317 352 353 382 462 581 701 711 799 980 441 357 231 225 182 139 94 77 101 166 198 214 242 260 255 230 180 176 219 195 182 158
135 168 193 202 205 155 120 150 179 236 269 282 305 350 432 535 494 632 613 394 234 201 209 203 162 135 132 90 80 111 199 191 207 221 227 191 214 168 167 216 203 190 150
187 195 222 210 179 163 161 180 186 216 199 240 259 232 212 195 185 158 138 144 149 157 154 146 129 138 144 133 107 111 219 205 222 240 245 225 176 160 155 171 218 192 153
221 208 213 199 163 155 198 232 228 158 170 159 161 168 161 160 164 144 128 114 116 117 118 137 134 159 157 149 128 120 130 195 250 245 234 219 170 163 159 179 167 121 131
239 214 204 237 241 242 219 232 181 176 176 181 182 179 152 124 109 108 104 113 118 136 144 162 165 155 169 176 138 122 119 144 231 225 197 183 155 155 191 174 155 146 169
272 263 291 304 300 283 275 241 201 173 176 193 187 168 158 144 132 123 122 125 132 149 153 163 168 168 168 187 187 177 195 175 192 198 198 202 225 254 260 252 198 214 201
320 313 318 301 292 287 303 243 194 169 190 183 175 161 136 127 120 116 110 124 129 143 154 166 184 186 172 168 168 182 212 243 237 234 295 299 293 280 273 288 269 249 218
345 347 324 315 305 302 267 237 203 175 164 155 131 112 103 101 95 90 87 88 86 105 118 143 192 198 190 150 167 187 161 177 229 313 347 306 281 268 249 272 274 243 218

GFSMW_con_3kmhel_030.txt.gz
Helicity
3 1 12 10 14 15 19 25 16 -6 -35 -51 -50 -35 -33 -13 -10 16 31 56 57 58 69 76 90 89 91 119 124 135 123 120 99 66 30 21 85 93 118 116 121 149 112
11 4 -8 -6 -1 11 13 10 8 3 -14 -34 -38 -31 -15 8 21 42 58 72 82 75 99 112 110 112 141 147 157 145 144 146 99 68 57 54 185 148 98 131 135 160 132
11 4 -4 8 12 13 11 1 -4 -12 -18 -16 -7 3 49 65 70 86 106 90 106 112 117 134 162 174 157 163 155 147 162 169 146 82 81 109 121 259 252 148 117 157 126
6 15 27 22 30 28 12 5 6 13 15 13 35 58 68 69 77 90 101 133 131 137 135 148 178 196 196 190 184 197 172 70 95 118 55 101 141 159 167 194 155 121 106
-4 -12 -9 2 13 24 33 21 16 18 40 58 62 66 55 72 108 100 114 142 161 175 166 182 195 207 215 212 211 177 132 80 81 101 152 120 131 135 159 137 176 235 147
36 9 2 -1 1 20 30 37 35 35 42 62 68 72 64 86 154 159 183 202 234 254 228 238 237 228 217 217 222 192 153 62 106 95 120 123 144 140 154 146 164 217 180
23 33 35 32 34 57 64 67 70 75 84 103 89 107 107 163 138 195 223 254 256 308 285 279 277 290 248 275 250 214 173 129 90 129 117 140 168 164 155 175 190 209 193
17 28 37 45 63 66 87 94 99 93 117 132 138 154 143 198 178 192 299 305 330 415 369 382 227 253 350 263 262 161 179 120 142 158 139 164 166 166 186 188 202 212 157
23 45 22 34 29 49 84 99 115 130 140 168 148 178 168 200 271 237 287 294 321 321 413 363 285 357 282 280 232 193 161 168 162 136 160 134 144 186 157 140 133 162 171
29 22 31 54 50 29 42 48 61 82 111 127 122 129 157 149 213 188 261 304 303 286 318 348 343 400 281 337 162 202 228 180 238 119 131 142 188 165 135 103 121 125 129
34 23 18 46 50 49 48 55 56 34 55 70 87 104 120 222 226 238 211 189 192 248 362 496 554 312 253 181 275 201 248 234 144 103 96 151 159 149 127 115 111 128 123
43 48 48 63 75 71 57 61 57 57 59 62 68 83 142 142 153 153 168 170 199 315 408 393 284 281 191 298 293 251 318 329 113 47 100 129 155 137 97 114 127 131 118
47 61 85 62 54 42 38 37 44 53 70 95 94 92 115 136 147 169 189 215 249 299 285 292 276 335 261 316 470 545 369 153 50 54 84 138 118 123 104 128 144 133 133
73 83 81 76 93 88 80 85 97 111 115 124 130 122 121 139 152 177 179 180 180 200 252 270 344 321 285 472 493 550 175 80 64 96 103 130 103 104 111 127 142 137 136
102 120 137 126 131 156 161 162 166 140 135 141 141 150 146 144 144 147 152 183 200 225 215 257 378 314 367 583 568 291 103 95 92 104 119 119 97 103 125 153 170 167 160
138 170 176 190 218 230 222 195 177 180 164 173 182 175 159 149 155 160 158 165 187 209 279 370 491 626 499 717 234 162 118 102 102 126 137 95 105 134 167 185 202 222 205
175 217 235 256 270 261 218 198 169 146 146 159 171 177 167 156 146 147 150 173 209 273 342 398 396 460 433 332 181 153 144 130 126 130 112 100 105 150 154 190 230 269 254
219 265 278 267 243 207 191 160 145 156 178 203 193 166 166 174 180 192 204 216 230 245 243 261 273 303 219 187 155 124 113 123 94 91 85 98 95 103 176 140 236 247 257
296 289 255 211 176 163 145 149 171 190 194 186 193 204 210 223 217 198 159 148 123 143 173 154 130 130 102 133 94 94 138 126 107 104 95 102 114 108 180 177 203 242 229
239 203 176 163 158 152 151 165 169 165 173 180 200 205 209 213 190 134 106 86 95 105 122 125 119 97 94 70 93 110 140 139 150 134 130 136 139 108 205 207 217 242 217
186 161 154 157 148 134 143 162 156 171 172 192 213 228 213 186 148 127 121 108 98 91 102 98 91 86 91 95 133 149 180 189 197 196 184 179 175 170 172 230 234 275 181
165 162 179 191 186 172 178 193 193 168 184 200 200 194 164 126 106 107 115 113 124 126 122 122 113 113 121 155 175 181 218 242 254 232 233 214 199 201 206 228 208 249 260
184 189 213 236 219 205 193 185 173 191 204 200 198 191 172 156 144 145 145 138 139 140 141 129 130 133 151 143 227 197 190 188 207 233 242 218 200 178 185 179 161 235 256
212 238 247 255 247 226 216 202 205 200 206 222 232 201 206 173 159 138 140 150 154 145 135 135 139 141 137 156 226 187 178 190 200 210 203 180 164 158 165 162 180 236 319
272 275 280 268 258 252 248 230 217 219 245 231 221 206 180 159 150 156 163 163 179 154 132 146 134 148 142 199 183 196 210 218 199 170 156 148 131 146 143 132 63 133 232
334 330 313 310 297 284 278 259 264 223 214 218 212 190 161 156 157 155 133 139 138 136 140 145 142 122 168 179 187 202 195 168 156 150 150 139 129 113 97 91 80 103 95

GFSMW_con_3kmhel_033.txt.gz
Helicity
41 -3 13 60 33 50 46 26 13 5 -4 -20 -25 -30 -33 -38 -37 -25 -18 43 23 43 46 60 66 58 78 85 124 120 116 118 122 101 30 73 148 108 69 114 106 144 128
39 26 9 17 46 37 31 26 25 7 -6 -10 -15 -33 -28 -18 11 -6 4 49 54 67 65 73 81 76 109 167 144 127 121 126 127 79 95 99 150 175 136 123 132 128 136
66 48 23 27 24 25 46 30 26 29 13 -13 -9 -18 -24 -33 11 25 42 58 58 75 84 83 98 111 132 163 154 141 136 150 129 112 125 109 125 209 214 235 172 152 143
40 54 44 35 39 25 25 13 14 14 20 -1 -4 17 25 43 45 55 72 97 87 90 93 112 110 150 145 170 167 161 163 185 182 162 105 57 116 133 159 212 225 175 137
37 42 63 59 64 54 43 36 17 20 16 45 8 45 38 49 47 76 89 84 118 107 144 153 151 180 175 186 196 204 194 193 195 204 135 140 95 89 117 150 153 194 118
38 31 39 50 41 48 56 48 32 32 31 53 69 44 99 52 70 180 118 89 193 179 185 193 235 247 191 245 160 222 198 211 158 151 115 139 146 128 144 144 137 159 180
32 27 28 36 31 63 62 54 50 43 53 54 71 88 91 75 65 153 237 158 176 266 221 200 246 303 321 439 484 273 252 234 156 88 143 109 123 149 168 162 176 179 166
56 27 25 47 45 63 95 81 68 61 74 80 109 79 98 91 117 213 238 299 259 220 166 286 393 426 473 442 370 345 221 175 64 128 193 154 209 175 158 145 171 168 206
12 40 33 32 41 64 102 139 70 75 71 100 145 114 141 169 156 205 227 254 312 385 308 298 378 468 444 454 418 307 187 147 131 206 247 154 139 128 134 138 146 201 257
49 41 32 41 38 36 75 142 96 56 76 101 212 200 146 127 158 228 237 261 255 262 301 352 358 411 466 521 356 272 197 106 269 295 213 145 85 106 125 152 186 190 215
48 37 32 29 45 87 83 112 101 54 67 80 118 176 137 157 197 271 191 181 228 236 269 308 331 471 558 484 310 269 148 262 312 406 230 50 83 105 129 164 167 164 176
44 46 48 50 57 64 72 80 72 65 113 140 86 153 188 256 265 244 168 188 188 169 231 298 365 447 468 317 221 292 226 264 391 270 70 55 56 98 137 153 135 188 159
54 65 78 74 79 74 73 74 73 76 78 81 114 174 222 194 190 168 168 223 229 269 364 428 351 371 308 184 285 206 297 417 399 87 44 25 81 132 151 147 161 193 149
73 57 85 98 104 101 84 107 117 142 159 169 150 139 156 150 155 176 198 210 255 290 294 286 294 252 269 292 255 429 618 398 159 57 57 73 88 120 153 152 176 178 162
78 90 114 135 125 132 147 179 199 216 190 181 158 199 154 148 156 169 160 147 166 167 177 194 193 254 249 272 390 481 304 170 99 65 79 86 101 127 114 110 121 141 151
84 100 156 191 212 169 211 213 209 195 181 206 227 200 192 185 212 252 281 256 230 217 186 164 168 243 343 411 312 264 196 168 147 149 112 109 128 126 107 123 143 141 138
89 116 169 213 254 256 229 246 226 221 212 200 185 178 198 226 242 239 230 239 228 212 225 220 256 293 291 242 251 253 210 177 159 147 120 112 112 103 110 120 177 213 189
193 170 198 224 263 280 276 240 204 187 181 178 178 195 225 235 226 242 247 229 205 175 154 147 134 139 164 188 147 137 163 151 130 82 91 115 123 126 131 150 152 152 224
197 243 281 299 295 259 218 183 171 162 167 186 215 222 198 210 228 249 237 203 183 159 157 148 141 133 102 142 128 135 116 117 116 109 109 125 140 137 138 163 184 180 190
271 274 292 273 241 203 167 161 168 191 215 219 201 197 222 243 271 269 245 227 192 185 154 147 122 99 86 84 110 135 158 148 157 141 135 154 178 173 177 195 202 210 193
267 266 237 210 179 159 167 195 207 218 193 193 219 257 267 248 225 191 170 158 138 112 113 98 105 115 136 200 276 249 193 220 186 185 189 214 235 268 263 257 245 227 168
239 216 201 184 175 182 192 210 219 193 181 186 220 230 212 182 176 178 156 150 160 157 149 159 158 155 164 238 239 231 225 193 171 174 197 214 215 176 158 164 157 156 162
216 193 203 222 225 222 217 229 199 184 184 217 234 242 239 221 198 194 188 199 187 177 193 175 175 168 180 165 235 228 175 153 172 191 205 169 150 130 141 106 107 140 177
226 228 240 249 269 268 262 230 210 194 208 246 266 258 238 216 204 189 192 208 194 185 182 180 179 173 169 186 219 166 143 149 160 189 180 162 137 126 139 128 112 142 135
264 255 273 305 314 310 295 269 251 230 244 265 272 276 266 250 228 224 214 196 196 196 185 194 172 183 161 214 177 149 137 140 155 154 157 142 164 143 134 111 97 68 40
293 304 322 353 380 357 346 326 293 275 279 298 307 294 268 245 207 184 140 185 189 163 168 174 181 156 188 166 135 113 109 120 121 152 154 178 161 140 118 97 74 47 7

GFSMW_con_3kmhel_036.txt.gz
Helicity
190 82 51 76 33 -24 -24 -29 -75 -102 -82 -41 -28 -72 -71 -62 -45 -64 33 17 -24 66 65 11 186 123 80 111 113 198 205 133 175 162 115 139 171 130 140 168 157 139 192
163 97 106 67 93 64 11 15 13 -2 -17 -33 -62 -58 -33 -48 -41 -8 -8 76 -24 144 100 50 184 133 87 138 214 225 189 146 185 167 163 135 181 183 124 155 173 157 213
181 125 91 128 120 126 56 31 78 71 46 23 -16 -54 -5 -20 -11 70 34 1 54 126 128 96 164 166 102 204 265 232 188 178 234 179 207 225 226 157 189 158 193 208 207
165 173 92 102 132 139 95 58 70 70 39 3 -22 22 50 25 3 134 105 90 93 104 128 131 135 163 149 205 251 230 188 210 255 213 188 181 191 194 166 235 173 218 247
145 219 169 110 138 120 144 64 59 91 80 46 -22 33 82 40 34 63 161 144 175 144 132 125 202 202 230 271 302 230 185 245 299 310 315 250 117 115 177 196 191 234 223
122 156 188 143 104 98 85 105 56 80 59 112 67 5 104 77 45 138 172 250 170 148 220 226 308 406 372 350 353 361 393 446 405 472 314 252 138 167 229 238 204 200 200
113 108 171 201 169 145 157 130 109 55 64 94 144 111 44 111 79 63 206 298 206 308 362 372 386 477 398 367 456 454 544 474 413 474 247 142 128 199 202 193 229 234 197
153 124 77 204 223 213 234 215 183 131 84 131 167 191 136 126 120 35 109 307 293 389 386 326 333 404 542 482 432 549 502 488 343 266 184 120 172 266 228 220 273 245 223
160 151 62 93 197 243 278 267 213 151 90 121 190 160 230 209 182 64 74 331 431 455 363 325 374 336 404 421 501 549 497 336 262 215 120 174 194 243 170 161 183 235 248
56 39 87 97 146 204 293 339 347 211 157 118 196 224 386 374 228 96 84 352 440 373 318 316 300 404 374 424 472 512 422 377 202 235 302 340 304 144 102 149 170 220 285
72 48 41 43 48 130 169 268 444 242 218 178 215 311 351 414 191 116 312 358 288 223 235 247 366 416 365 431 479 467 368 185 257 549 360 358 171 132 132 156 179 199 233
56 53 39 31 22 38 110 161 185 164 180 157 301 228 256 227 293 328 309 255 229 208 218 283 349 344 409 422 448 374 286 338 229 372 391 232 113 114 122 161 181 196 191
44 108 69 63 70 89 100 151 212 233 197 121 227 198 340 336 320 325 292 236 204 187 218 288 360 443 389 317 316 297 256 243 461 382 246 137 120 132 111 129 189 238 226
88 88 129 113 100 110 142 188 202 172 136 153 221 278 301 187 187 204 259 304 303 317 343 385 451 377 301 246 253 190 244 372 308 253 173 154 128 140 134 140 161 192 227
107 87 139 218 176 193 213 222 245 248 223 234 333 330 207 177 199 232 231 236 235 256 272 287 286 265 236 221 199 277 318 291 262 197 181 133 127 106 96 122 145 171 193
128 110 115 256 219 215 273 316 299 300 294 311 321 310 232 225 207 249 246 224 221 218 233 213 209 213 213 225 306 333 270 252 222 198 154 116 86 68 56 73 83 121 182
170 166 220 299 259 287 365 367 290 292 350 359 286 286 303 312 293 281 294 319 300 243 219 216 216 302 286 308 296 276 278 234 181 131 117 114 93 75 101 104 115 137 147
307 313 343 325 373 345 299 273 277 272 256 273 249 234 220 227 252 313 326 294 278 274 253 237 224 217 197 198 174 175 178 145 111 109 103 116 104 110 125 164 174 173 179
424 394 335 306 322 300 265 274 269 260 246 225 202 206 240 282 285 255 236 220 195 193 184 149 131 156 196 147 150 150 123 124 140 132 133 157 172 239 234 214 227 231 230
359 316 354 316 291 290 296 274 250 237 230 223 232 242 259 284 316 312 288 271 257 242 231 243 217 193 192 182 216 164 196 217 182 143 123 114 130 149 182 216 234 246 235
350 377 339 294 270 277 272 271 250 239 239 251 278 335 368 276 236 215 232 233 223 218 199 167 147 163 270 297 290 261 194 177 151 139 139 145 145 171 161 163 208 214 196
323 319 306 292 269 253 249 248 252 274 325 337 303 258 223 194 202 203 182 177 218 217 209 221 211 221 241 251 258 255 224 176 142 141 142 153 140 126 126 153 148 152 174
310 273 308 271 242 233 235 281 288 271 265 262 235 196 188 231 260 278 266 327 286 293 265 246 232 274 262 231 303 250 206 170 148 148 151 124 119 119 160 123 134 142 161
246 284 299 289 293 283 281 304 301 287 290 273 259 267 316 325 315 306 344 334 340 298 262 255 261 260 265 237 189 157 138 143 146 155 133 132 139 131 158 134 127 117 119
276 323 331 322 327 370 391 341 335 330 354 364 360 347 332 331 395 390 359 273 266 246 249 248 247 229 226 206 178 153 132 136 136 128 127 131 162 167 147 133 129 115 112
354 367 375 392 409 411 413 393 406 431 421 433 437 388 398 395 341 278 287 269 163 163 188 204 206 185 199 196 177 158 135 124 103 126 132 166 183 174 150 131 121 109 97

GFSMW_con_3kmhel_042.txt.gz
Helicity
47 71 74 88 88 64 77 104 153 103 96 7 -17 -73 -84 -106 -143 -139 -158 -70 -15 -61 -36 38 88 124 160 147 130 150 145 146 179 226 193 174 161 162 168 192 201 205 170
89 89 64 59 74 99 36 28 35 55 39 -3 -61 -81 -86 -145 -123 -168 -211 -95 -45 -33 -22 51 43 102 116 157 182 201 212 203 236 263 260 253 255 230 198 202 250 244 245
153 115 115 90 78 70 51 15 -1 11 10 -28 -80 -63 -97 -156 -185 -249 -256 -180 -77 -43 -26 -1 30 99 139 179 206 236 277 296 249 259 265 337 292 295 255 244 231 298 368
252 141 120 112 104 56 21 2 -26 -36 -16 -56 -107 -142 -145 -154 -200 -203 -178 -137 -66 -28 6 41 66 105 148 165 206 238 275 318 409 297 207 379 388 313 240 288 292 302 326
403 319 174 102 124 81 63 12 -27 -56 -61 -61 -84 -123 -154 -187 -190 -198 -147 -107 -82 -15 50 72 116 119 143 161 225 278 353 366 449 408 305 347 342 372 395 340 268 286 214
390 341 273 174 124 91 49 42 35 -30 -63 -36 -53 -48 -37 -47 -101 -124 -70 -54 -54 -37 34 85 138 163 189 218 272 316 393 430 426 397 398 371 383 480 392 379 269 216 127
392 322 246 240 184 197 168 119 134 95 37 28 9 17 27 18 3 -28 -23 -2 0 36 108 167 169 134 187 255 340 384 405 403 387 370 361 364 374 366 307 281 204 203 164
329 358 345 332 282 254 224 193 189 151 148 135 93 59 40 21 -21 -26 20 70 81 111 239 222 178 192 202 264 391 449 427 411 370 332 346 386 310 298 218 233 227 236 222
246 299 307 354 348 297 270 288 251 227 216 204 153 124 109 116 88 71 138 214 178 148 272 222 254 204 274 290 445 491 413 417 390 353 381 357 247 283 207 203 358 268 238
222 250 262 291 315 335 346 334 291 300 303 239 178 134 116 136 145 174 219 259 283 282 197 133 209 223 220 372 464 428 391 401 382 382 409 322 261 240 330 405 421 269 258
182 245 305 299 332 288 331 368 327 298 263 294 242 317 242 204 260 306 325 368 415 305 22 80 173 204 279 321 347 373 372 363 350 342 339 319 309 344 352 318 236 190 192
61 170 285 318 326 308 283 330 399 383 362 393 283 292 290 383 435 339 352 488 287 261 80 105 145 222 329 323 295 335 320 330 332 313 306 285 291 370 303 226 185 208 190
92 128 154 179 231 193 210 316 404 469 486 568 566 471 298 315 357 379 344 430 322 204 204 210 252 250 255 291 305 316 303 295 305 301 310 268 295 266 247 202 147 203 174
109 142 162 179 180 163 153 173 267 322 419 494 525 372 279 262 176 218 370 338 291 300 253 248 262 274 303 288 302 298 263 275 277 280 271 251 232 262 234 192 184 169 193
93 162 150 191 211 183 188 166 186 210 346 411 345 249 174 166 170 356 412 328 264 263 281 330 332 312 310 302 293 264 286 296 269 287 263 236 239 249 244 212 183 164 152
101 170 129 212 303 292 305 323 304 282 320 295 236 250 249 291 324 317 349 339 340 354 349 332 336 337 314 276 264 262 260 272 280 269 278 291 239 258 265 215 224 210 210
95 155 201 238 346 394 402 383 438 443 408 336 370 389 399 378 397 394 401 368 347 324 299 308 317 325 295 247 249 285 315 319 309 309 313 280 241 212 188 186 156 154 154
198 187 226 323 348 485 513 504 523 443 481 459 454 445 439 444 415 370 328 339 290 293 296 309 297 301 281 290 339 407 386 373 354 315 276 252 229 224 208 169 143 119 118
239 288 290 394 527 536 556 580 583 449 402 378 367 369 379 369 310 320 307 307 331 317 308 276 274 296 321 357 389 389 360 342 325 301 270 242 248 230 219 180 172 148 145
335 442 440 471 504 543 612 637 550 466 393 351 344 318 315 307 303 279 284 294 301 297 285 305 338 384 387 356 318 310 310 350 308 290 274 272 242 238 208 181 171 178 171
339 333 354 436 505 571 615 541 473 402 357 373 393 363 308 272 248 274 288 296 332 366 394 443 439 464 416 398 368 334 323 306 287 250 223 212 209 187 188 199 187 177 180
284 327 412 431 488 521 526 471 455 429 415 385 358 323 297 279 283 296 294 327 370 429 429 456 473 459 441 425 404 365 349 291 243 221 185 161 164 175 185 197 211 212 191
251 307 420 480 468 468 460 477 436 434 412 385 347 319 309 299 306 336 362 368 387 404 410 437 466 467 458 442 426 370 306 257 198 172 162 168 182 203 205 213 229 213 192
325 383 485 502 515 470 457 449 427 414 386 372 375 390 424 441 440 434 394 391 405 429 423 435 451 455 440 389 313 278 228 180 160 156 169 177 182 194 208 206 199 194 190
400 441 492 523 494 452 467 452 429 431 445 458 453 466 473 486 533 581 535 531 483 425 429 428 409 418 397 320 265 219 205 199 159 150 172 194 191 188 188 181 185 177 180
472 510 527 564 546 542 507 479 462 481 505 509 497 496 520 528 530 538 581 570 473 443 405 365 339 317 252 225 244 242 207 209 185 156 152 149 145 148 154 167 169 160 164

GFSMW_con_3kmhel_048.txt.gz
Helicity
55 79 61 61 83 90 54 64 124 132 149 143 199 236 247 313 350 191 106 118 95 90 88 92 88 85 63 60 85 110 86 84 100 118 86 64 80 110 122 123 130 136 109
100 107 86 71 82 99 85 71 65 121 170 161 203 253 244 315 372 161 166 150 104 114 112 137 90 54 1 16 101 124 128 109 122 129 113 86 107 141 129 139 166 148 160
164 142 138 110 74 103 108 95 76 59 2 6 93 278 321 282 309 87 112 71 166 161 91 27 38 -29 68 55 121 146 153 150 138 166 156 107 79 104 119 123 155 151 196
142 168 158 147 104 80 101 113 94 95 56 11 -3 55 88 59 5 -79 -50 -45 -32 -12 -27 -4 34 40 110 108 114 148 173 199 192 192 155 183 173 159 105 104 111 153 141
191 189 195 178 120 102 87 107 122 84 75 64 65 48 66 28 -94 -156 -103 -114 -24 20 14 12 4 39 93 106 129 151 171 227 243 311 290 262 230 250 260 172 198 200 165
154 145 152 171 138 146 125 101 118 105 85 57 23 26 7 -37 -124 -168 -153 -171 -158 -129 -180 -124 15 29 76 124 150 173 198 216 245 253 267 295 250 267 313 321 272 258 165
156 164 208 205 201 180 158 143 128 93 75 76 66 48 28 1 -52 -113 -164 -191 -232 -260 -196 -92 -19 33 63 111 177 198 184 198 216 195 200 232 225 261 292 323 261 270 205
159 150 214 198 212 217 216 174 165 133 125 98 79 45 15 -16 -53 -93 -105 -112 -133 -132 -123 -143 -70 8 55 110 168 188 153 138 187 178 183 192 200 303 335 335 316 286 269
136 116 165 215 211 214 238 254 210 155 153 153 105 95 74 68 35 19 -1 -40 -43 -39 -21 15 37 71 92 133 154 178 116 77 103 156 113 178 228 306 333 328 306 338 311
33 70 138 178 185 207 218 237 249 255 209 167 160 143 136 113 88 79 59 36 36 21 46 69 88 113 120 92 103 154 179 193 19 84 143 210 279 329 323 340 300 334 303
40 69 90 136 182 155 212 248 250 275 271 264 255 225 211 214 212 178 158 147 82 150 108 111 148 105 119 175 213 166 223 56 143 179 169 195 315 349 371 397 353 387 331
60 81 104 132 149 178 195 226 260 276 283 319 324 290 247 214 227 214 214 212 79 232 158 192 102 73 212 244 273 141 53 82 126 144 176 280 315 333 356 323 351 296 277
50 91 106 127 151 199 233 270 280 274 319 341 366 371 386 379 347 333 272 79 206 116 17 80 68 149 355 310 20 -4 42 66 126 224 243 289 321 339 394 333 319 342 342
55 45 84 111 134 179 236 233 227 263 270 329 392 419 476 508 454 368 216 123 171 146 130 204 235 161 290 243 156 150 139 182 255 271 272 287 321 339 344 363 329 368 350
41 53 81 112 114 141 178 189 161 181 225 224 278 362 429 424 397 308 248 206 186 213 197 219 228 255 237 220 234 218 230 252 266 260 287 306 344 350 346 361 356 347 317
47 64 68 107 127 142 182 194 154 187 226 211 229 233 272 344 315 260 234 219 229 196 210 252 301 351 321 291 266 273 299 307 308 328 377 427 453 452 457 424 387 308 280
74 61 87 113 142 147 198 209 187 245 241 217 214 246 273 307 287 252 240 236 276 306 289 301 332 303 283 246 261 291 326 335 344 390 426 471 441 440 413 397 345 330 311
116 102 103 91 94 137 255 273 239 240 251 238 280 306 293 307 306 320 322 372 375 339 323 308 346 316 274 288 330 377 380 415 422 421 440 447 428 400 365 362 339 266 225
132 108 109 104 117 198 264 325 304 295 304 317 295 272 298 395 399 339 339 352 332 346 347 346 344 337 343 345 378 440 480 518 523 518 496 471 462 407 339 317 280 305 276
77 98 96 135 147 193 253 318 312 322 335 333 306 314 325 313 314 312 336 366 401 427 442 495 463 429 402 375 399 428 455 492 507 527 502 463 421 381 319 280 295 307 265
51 105 112 103 133 203 254 317 362 348 387 352 345 331 285 274 278 310 316 379 467 524 526 526 495 473 442 436 410 393 392 401 439 455 444 414 349 307 304 277 258 253 210
101 46 77 158 208 230 310 353 393 362 350 351 354 342 330 306 335 411 439 447 453 462 439 446 479 497 498 497 485 462 458 425 427 410 377 350 332 307 271 255 255 301 257
107 104 192 216 288 305 310 386 322 313 319 367 347 346 361 382 394 420 413 410 378 366 357 375 411 441 448 477 515 506 465 424 410 362 334 309 277 260 286 344 378 297 265
113 132 224 248 242 206 221 221 225 262 327 370 385 380 429 470 472 428 345 310 306 312 318 341 371 391 418 439 442 435 410 391 378 348 329 327 363 418 396 334 267 244 248
132 123 169 219 232 243 261 238 225 278 349 367 352 390 417 435 468 472 375 323 306 253 266 307 336 372 410 407 380 389 400 363 329 340 360 397 336 276 273 260 253 261 262
111 199 277 289 304 320 326 304 289 287 314 325 316 326 362 382 382 409 475 485 378 361 393 427 425 455 432 403 398 408 365 307 285 323 331 308 283 270 253 258 249 231 213